CAPE
0 0 0 0 0 0 0 0 0 0 0 0 0 0 0 0 0 0 0 0 0 0 0 0 0 0 0 0 0 0 0 0 0 0 0 0 0 0 0 0 0 0 0
0 0 0 0 0 0 0 0 0 0 0 0 0 0 0 0 0 0 0 0 0 0 0 0 0 0 0 0 0 0 0 0 0 0 0 0 0 0 0 0 0 0 0
0 0 0 0 0 0 0 0 0 0 0 0 0 0 0 0 0 0 0 0 0 0 0 0 0 0 0 0 0 0 0 0 0 0 0 0 0 0 0 0 0 0 0
0 0 0 0 0 0 0 0 0 0 0 0 0 0 0 0 0 0 0 0 0 0 0 0 0 0 0 0 0 0 0 0 0 0 0 0 0 0 0 0 0 0 0
0 0 0 0 0 0 0 0 0 0 0 0 0 0 0 0 0 0 0 0 0 0 0 0 0 0 0 0 0 0 0 0 0 0 0 0 0 0 0 0 0 0 0
0 0 0 0 0 0 0 0 0 0 0 0 0 0 0 0 0 0 0 0 0 0 0 0 0 0 0 0 0 0 0 0 0 0 0 0 0 0 0 0 0 0 0
0 0 0 0 0 0 0 0 0 0 0 0 0 0 0 0 0 0 0 0 0 0 0 0 0 0 0 0 0 0 0 0 0 0 0 0 0 0 0 0 0 2 2
0 0 0 0 0 0 0 0 0 0 0 0 0 0 0 0 0 0 0 0 0 0 0 0 0 0 0 0 0 0 0 0 0 0 0 0 0 0 0 4 16 9 2
0 0 0 0 0 0 0 0 0 0 0 0 0 0 0 0 0 0 0 0 0 0 0 0 0 0 0 0 0 0 0 0 0 0 0 3 11 14 12 9 4 8 10
0 0 0 0 0 0 0 0 0 0 0 0 0 0 0 0 0 0 0 0 0 0 0 0 0 0 0 0 0 0 0 0 0 0 1 0 0 0 0 2 4 14 18
0 0 0 0 0 0 0 0 0 0 0 0 0 0 0 0 0 0 0 0 0 0 0 0 0 0 0 0 0 0 0 2 1 1 0 0 1 0 0 0 0 0 0
0 0 0 0 0 0 0 0 0 0 0 0 0 0 0 0 0 0 0 0 0 0 0 0 0 0 0 0 0 0 1 0 0 0 0 0 0 0 0 0 0 1 0
0 0 0 0 0 0 0 0 0 0 0 0 0 0 0 0 0 0 0 0 0 0 0 0 0 0 0 0 0 0 0 0 0 0 0 0 0 0 0 0 0 0 0
0 0 0 0 0 0 0 0 0 0 0 0 0 0 0 0 0 0 0 0 0 0 0 0 0 0 0 0 0 0 0 0 0 0 0 0 0 0 0 0 0 0 0
0 0 0 0 0 0 0 0 0 0 0 0 0 0 0 0 0 0 0 0 0 0 0 0 0 0 0 0 0 0 0 0 0 0 0 0 0 0 0 0 0 0 0
0 0 0 0 0 0 0 0 0 0 0 0 0 0 0 0 0 0 0 0 0 0 0 0 0 0 0 0 0 0 0 0 0 0 0 0 0 0 1 0 0 0 1
0 0 0 0 0 0 0 0 0 0 0 0 0 0 0 0 0 0 0 0 0 0 0 0 0 0 0 0 0 0 0 0 0 0 0 0 0 0 0 0 0 1 0
0 0 0 0 0 0 0 0 0 0 0 0 0 0 0 0 0 0 0 0 0 0 0 0 0 0 0 0 0 0 0 0 0 0 0 0 0 0 0 0 0 0 4
0 0 0 0 0 0 0 0 0 0 0 0 0 0 0 0 0 0 0 0 0 0 0 0 0 0 0 0 0 0 0 0 0 0 0 0 0 0 0 0 1 3 4
0 0 0 0 0 0 0 0 0 0 0 0 0 0 0 0 0 0 0 0 0 0 0 0 0 0 0 0 0 0 0 0 0 0 0 0 0 0 0 0 0 0 0
0 0 0 0 0 0 0 0 0 0 0 0 0 0 0 0 0 0 0 0 0 0 0 0 0 0 0 0 0 0 0 0 1 0 1 0 0 2 0 0 0 1 0
0 0 0 0 0 0 0 0 0 0 0 0 0 0 0 0 0 0 0 0 0 0 0 0 0 0 0 0 0 0 0 0 0 0 1 0 0 0 1 0 0 1 0
0 0 0 0 0 0 0 0 0 0 0 0 0 0 0 0 0 0 0 0 0 0 0 0 0 0 0 0 0 0 0 0 0 1 1 1 2 0 1 1 1 1 0
0 0 0 0 0 0 0 0 0 0 0 0 0 0 0 0 0 0 0 0 0 0 0 0 0 0 0 0 0 0 0 0 0 0 1 2 1 1 1 1 1 1 0
0 0 0 0 0 0 0 0 0 0 0 0 0 0 0 0 0 0 0 0 0 0 0 0 0 0 0 0 0 0 0 0 0 1 0 0 1 1 1 1 2 1 1
0 0 0 0 0 0 0 0 0 0 0 0 0 0 0 0 0 0 0 0 0 0 0 0 0 0 0 0 0 0 0 1 0 1 1 1 1 0 1 1 1 1 1
CIN
0 0 0 0 0 0 0 0 0 0 0 0 0 0 0 0 0 0 0 0 0 0 0 0 0 0 0 0 0 0 0 0 0 0 0 0 0 0 0 0 0 0 0
0 0 0 0 0 0 0 0 0 0 0 0 0 0 0 0 0 0 0 0 0 0 0 0 0 0 0 0 0 0 0 0 0 0 0 0 0 0 0 0 0 0 0
0 0 0 0 0 0 0 0 0 0 0 0 0 0 0 0 0 0 0 0 0 0 0 0 0 0 0 0 0 0 0 0 0 0 0 0 0 0 0 0 0 0 0
0 0 0 0 0 0 0 0 0 0 0 0 0 0 0 0 0 0 0 0 0 0 0 0 0 0 0 0 0 0 0 0 0 0 0 0 0 0 0 0 0 0 0
0 0 0 0 0 0 0 0 0 0 0 0 0 0 0 0 0 0 0 0 0 0 0 0 0 0 0 0 0 0 0 0 0 0 0 0 0 0 0 0 0 0 0
0 0 0 0 0 0 0 0 0 0 0 0 0 0 0 0 0 0 0 0 0 0 0 0 0 0 0 0 0 0 0 0 0 0 0 0 0 0 0 0 0 0 0
0 0 0 0 0 0 0 0 0 0 0 0 0 0 0 0 0 0 0 0 0 0 0 0 0 0 0 0 0 0 0 0 0 0 0 0 0 0 0 0 0 -28 -22
0 0 0 0 0 0 0 0 0 0 0 0 0 0 0 0 0 0 0 0 0 0 0 0 0 0 0 0 0 0 0 0 0 0 0 0 0 0 0 -13 -5 -8 -40
0 0 0 0 0 0 0 0 0 0 0 0 0 0 0 0 0 0 0 0 0 0 0 0 0 0 0 0 0 0 0 0 0 0 0 -3 -3 -2 -2 -3 -7 -2 -3
0 0 0 0 0 0 0 0 0 0 0 0 0 0 0 0 0 0 0 0 0 0 0 0 0 0 0 0 0 0 0 0 0 -1 -6 0 0 0 -12 -20 -12 0 -1
0 0 0 0 0 0 0 0 0 0 0 0 0 0 0 0 0 0 0 0 0 0 0 0 0 0 0 0 0 0 0 -2 -3 -3 0 0 -2 0 -1 -3 0 0 0
0 0 0 0 0 0 0 0 0 0 0 0 0 0 0 0 0 0 0 0 0 0 0 0 0 0 0 0 0 0 -1 0 0 0 0 0 0 0 0 0 0 -3 -4
0 0 0 0 0 0 0 0 0 0 0 0 0 0 0 0 0 0 0 0 0 0 0 0 0 0 0 0 0 0 0 0 0 0 0 0 0 0 0 0 0 0 0
0 0 0 0 0 0 0 0 0 0 0 0 0 0 0 0 0 0 0 0 0 0 0 0 0 0 0 0 0 0 0 0 0 0 0 0 0 0 0 0 0 0 0
0 0 0 0 0 0 0 0 0 0 0 0 0 0 0 0 0 0 0 0 0 0 0 0 0 0 0 0 0 0 0 0 0 0 0 0 0 0 -1 -4 0 0 0
0 0 0 0 0 0 0 0 0 0 0 0 0 0 0 0 0 0 0 0 0 0 0 0 0 0 0 0 0 0 0 0 0 0 0 0 0 0 0 -2 0 0 0
0 0 0 0 0 0 0 0 0 0 0 0 0 0 0 0 0 0 0 0 0 0 0 0 0 0 0 0 0 0 0 0 0 0 0 0 0 0 0 0 0 -6 0
0 0 0 0 0 0 0 0 0 0 0 0 0 0 0 0 0 0 0 0 0 0 0 0 0 0 0 0 0 0 0 0 0 0 0 0 0 0 0 0 0 0 0
0 0 0 0 0 0 0 0 0 0 0 0 0 0 0 0 0 0 0 0 0 0 0 0 0 0 0 0 0 0 0 0 0 0 -6 0 0 0 0 0 -1 0 0
0 0 0 0 0 0 0 0 0 0 0 0 0 0 0 0 0 0 0 0 0 0 0 0 0 0 0 0 0 0 0 0 0 -1 -3 -3 0 0 0 0 0 0 0
0 0 0 0 0 0 0 0 0 0 0 0 0 0 0 0 0 0 0 0 0 0 0 0 0 0 0 0 0 0 0 0 -1 -1 -4 -2 -3 -1 0 0 0 0 0
0 0 0 0 0 0 0 0 0 0 0 0 0 0 0 0 0 0 0 0 0 0 0 0 0 0 0 0 0 0 0 -1 0 0 -3 -1 -2 0 -2 -4 -4 -3 -1
0 0 0 0 0 0 0 0 0 0 0 0 0 0 0 0 0 0 0 0 0 0 0 0 0 0 0 0 0 0 0 0 -4 -2 -2 -2 -1 0 0 0 -1 0 -1
0 0 0 0 0 0 0 0 0 0 0 0 0 0 0 0 0 0 0 0 0 0 0 0 0 0 0 0 0 0 0 -4 -2 -3 -3 -1 0 0 0 0 0 0 0
0 0 0 0 0 0 0 0 0 0 0 0 0 0 0 0 0 0 0 0 0 0 0 0 0 0 0 0 0 0 0 -1 -3 -3 -4 -4 0 0 0 0 0 0 0
0 0 0 0 0 0 0 0 0 0 0 0 0 0 0 0 0 0 0 0 0 0 0 0 0 0 0 0 0 0 0 -2 -2 -2 -5 -2 0 0 0 0 0 0 0
Wind_Speed
9 7 6 5 4 2 2 3 6 11 13 14 15 16 16 17 17 18 18 19 19 20 20 20 22 20 21 21 21 23 24 26 30 32 33 34 33 33 33 31 31 30 29
8 7 7 5 3 3 1 2 7 10 14 15 16 17 18 18 18 19 20 21 22 22 22 23 24 23 24 23 24 24 25 26 29 33 32 33 33 32 33 33 32 30 29
8 8 8 7 5 4 1 3 8 12 15 18 19 19 19 19 20 20 22 23 24 24 24 25 26 26 27 27 26 26 26 27 28 30 32 32 32 32 32 30 30 29 27
9 9 9 9 8 5 2 4 9 13 17 19 21 21 22 22 22 23 23 25 26 26 26 26 27 28 29 28 28 27 28 28 28 29 30 32 33 31 29 30 29 27 26
10 10 11 10 8 6 4 5 9 14 17 20 22 23 24 24 24 25 25 27 27 28 28 28 29 28 27 27 28 28 28 28 28 29 31 33 33 32 29 27 27 28 27
12 12 11 10 9 8 6 6 10 14 18 20 22 24 26 26 26 26 27 27 28 30 32 32 31 30 30 29 28 27 26 27 27 28 30 31 31 28 25 25 26 29 32
14 13 13 12 11 10 8 9 11 15 18 20 22 25 27 27 27 28 28 28 29 31 33 33 33 31 30 29 29 28 27 27 25 26 28 28 27 25 24 24 24 26 27
16 15 15 14 13 12 11 11 13 15 18 20 23 25 27 28 28 28 28 29 30 31 32 32 33 33 31 30 29 30 29 28 28 26 25 24 22 22 21 22 25 27 26
20 19 18 17 16 14 14 13 14 16 18 21 24 26 27 28 28 28 28 29 31 31 31 32 33 33 32 31 31 30 29 29 28 26 23 22 22 23 25 29 32 32 35
23 21 20 19 18 17 16 15 16 17 19 21 24 26 27 28 28 26 27 30 32 32 32 32 32 31 32 33 32 31 32 30 28 27 25 23 24 27 29 30 32 33 32
24 23 21 20 20 18 16 16 17 18 19 22 25 27 28 28 28 25 26 29 30 31 32 33 32 32 33 33 32 30 30 28 27 26 25 23 25 31 31 31 32 33 34
23 22 21 20 19 18 17 17 17 18 21 24 27 29 29 28 27 24 25 27 27 31 32 32 32 33 35 34 31 28 28 28 28 27 26 26 27 34 34 35 34 31 28
20 21 20 19 18 17 18 18 19 20 23 25 27 29 30 29 27 26 26 27 28 30 30 31 34 35 34 32 31 28 28 29 28 28 27 26 27 31 33 34 33 32 31
19 19 18 17 17 17 17 17 19 21 23 25 28 30 30 29 28 27 27 28 29 30 30 32 33 32 29 30 29 28 28 27 25 26 28 28 31 35 35 36 37 37 37
18 17 16 16 16 16 16 17 19 21 22 26 28 29 30 30 29 26 27 28 29 29 31 31 32 31 31 30 29 28 27 26 26 27 28 30 31 36 36 36 38 37 35
17 16 15 15 15 15 17 19 20 21 22 24 25 27 28 27 25 26 26 26 27 29 30 31 30 30 30 30 30 28 26 27 26 26 29 30 34 38 38 40 40 37 35
16 16 15 15 16 17 18 21 23 24 23 25 25 26 26 26 25 25 25 26 27 29 29 28 28 28 28 28 28 27 28 26 25 26 28 30 34 37 38 40 41 37 35
17 16 16 16 17 18 20 22 23 25 27 28 26 25 25 24 23 23 24 26 28 27 27 28 28 27 26 26 27 27 26 26 26 27 28 31 34 36 37 39 38 35 31
18 18 17 18 18 19 21 22 23 25 26 27 27 26 24 23 22 23 24 26 28 27 27 26 27 25 24 24 24 25 25 25 26 27 28 29 34 34 35 36 35 32 29
19 18 18 18 19 20 21 23 24 25 26 27 27 26 24 22 23 24 24 26 26 25 26 26 25 24 23 23 23 23 24 25 27 27 27 28 33 33 33 34 34 30 26
20 19 18 19 20 21 22 23 24 24 26 26 25 23 21 21 22 24 25 25 25 25 24 25 24 23 21 22 23 22 24 25 27 28 28 30 34 33 32 32 33 29 25
19 18 18 19 20 21 22 22 23 24 24 25 24 22 20 21 22 23 24 24 24 24 25 24 22 22 21 22 22 22 23 25 27 27 28 30 33 33 32 33 31 29 25
18 18 19 19 19 20 21 22 22 22 23 22 22 22 22 22 22 22 23 23 24 25 24 22 22 22 22 22 22 22 24 26 27 27 29 32 34 33 33 33 32 29 25
17 17 18 18 18 19 20 21 22 23 21 21 20 21 23 22 22 22 22 25 26 25 23 22 22 23 23 22 23 23 25 25 25 25 28 32 34 33 30 31 31 28 24
15 15 15 16 17 18 20 21 22 22 22 22 22 23 22 20 22 23 25 26 26 25 25 24 24 24 24 24 24 24 25 24 24 24 28 30 32 31 29 31 29 26 23
14 14 15 16 19 20 21 22 20 20 22 22 23 22 21 22 25 28 28 26 26 26 26 26 26 26 27 27 26 26 25 27 26 26 28 30 32 31 30 31 28 25 22
Wind_Direction
182 182 183 181 173 148 105 46 26 17 15 12 11 9 6 4 3 0 358 356 352 349 345 341 337 336 332 328 324 323 320 320 314 320 324 325 325 324 325 325 322 318 314
190 190 189 189 182 173 145 31 15 10 8 6 5 4 2 0 360 358 355 354 351 348 346 343 339 338 333 330 328 324 322 320 318 316 323 325 324 325 324 323 323 323 320
193 193 195 195 194 190 191 5 2 1 1 1 0 358 357 356 355 354 352 350 349 346 345 343 340 339 335 334 331 328 325 323 321 320 322 326 325 326 325 325 326 325 324
197 198 199 200 199 204 243 338 352 355 354 356 356 356 355 354 352 351 350 349 348 347 346 344 342 340 337 335 333 330 329 326 326 324 324 326 328 330 329 328 329 330 327
207 207 207 206 210 223 264 313 338 346 348 351 353 353 352 351 350 349 349 348 347 347 346 345 344 343 341 338 336 334 333 332 331 329 328 331 331 332 330 334 331 331 332
218 218 218 217 222 232 260 295 325 337 342 345 348 349 348 348 348 347 346 346 346 346 344 345 347 347 346 344 342 340 336 335 333 333 333 332 334 336 338 337 336 336 333
229 232 230 231 234 243 262 294 313 327 335 339 342 345 345 345 346 345 345 347 346 346 345 346 347 348 347 345 344 344 344 343 339 336 334 335 336 338 338 336 335 334 333
236 239 240 243 244 252 267 286 305 321 328 334 338 341 343 343 343 344 346 346 346 346 346 347 348 349 349 349 349 349 349 348 345 342 339 339 340 339 337 335 334 333 334
242 244 245 247 248 253 266 281 300 314 323 329 335 339 340 340 342 343 345 345 345 345 347 350 350 350 352 352 350 347 347 347 348 347 347 345 344 342 338 335 332 331 330
243 249 253 249 251 255 265 280 299 310 318 326 332 336 337 338 340 342 344 344 344 345 347 349 351 354 353 351 348 346 344 345 348 349 350 351 349 343 340 338 336 333 333
257 258 256 254 254 258 268 284 295 305 316 323 328 333 335 336 338 339 342 342 343 344 346 347 350 349 348 347 348 347 346 349 350 352 353 354 352 341 339 338 338 336 333
260 257 256 256 259 262 269 283 294 304 313 319 325 329 333 335 337 338 340 341 343 343 343 346 348 346 345 345 347 350 352 354 354 354 354 354 351 339 337 336 339 340 336
261 259 260 260 258 262 269 279 292 302 310 316 322 326 329 333 335 336 338 340 341 342 345 345 345 346 347 350 354 357 357 355 355 354 353 352 349 342 340 340 341 342 343
265 265 262 256 261 265 272 281 292 301 308 314 320 323 326 330 332 335 336 337 339 341 343 345 346 347 351 353 354 355 356 357 358 356 353 350 345 341 339 340 340 343 344
268 266 262 262 262 267 274 283 293 302 309 315 319 322 324 326 329 332 334 335 339 341 343 344 346 348 350 352 354 354 356 359 357 356 353 351 348 343 342 344 341 343 345
271 267 265 264 266 272 280 293 301 308 312 319 322 323 326 329 331 332 335 337 340 342 342 342 344 346 348 350 352 353 355 356 356 355 353 352 347 343 342 342 343 345 346
269 267 266 267 272 278 287 293 299 310 315 317 320 324 326 328 330 332 334 337 339 341 340 340 340 343 347 350 352 352 350 354 354 352 351 351 346 343 344 344 345 348 350
270 265 265 269 275 283 290 296 302 306 310 314 318 321 324 326 329 333 335 337 337 339 340 340 342 343 345 349 350 351 351 352 351 350 349 348 345 344 346 344 348 351 353
265 265 267 273 281 288 294 299 304 307 310 314 319 322 323 326 329 331 334 335 336 337 338 339 341 343 344 347 349 351 351 350 349 347 347 347 344 345 345 347 349 352 353
264 264 269 276 284 291 296 300 304 307 311 314 317 320 325 327 327 329 332 333 334 335 336 338 341 343 345 346 347 348 350 349 347 346 346 346 342 344 345 346 349 352 353
264 267 272 280 286 291 297 301 305 309 311 314 317 321 322 324 326 328 330 333 334 335 336 338 339 341 343 343 343 344 346 346 346 344 345 343 340 342 343 345 347 351 352
265 268 275 282 289 294 298 302 306 309 313 316 319 322 324 325 326 327 329 332 335 336 337 340 342 342 341 342 341 341 341 341 341 342 342 341 338 340 341 342 346 348 351
265 270 278 284 289 296 301 305 307 310 313 316 318 319 322 325 325 327 330 333 335 336 338 340 340 341 340 340 339 338 339 337 338 339 340 338 336 337 339 340 342 345 347
264 272 279 286 293 299 304 307 310 310 314 318 320 321 323 326 327 329 332 331 332 335 338 338 337 337 337 336 335 333 335 336 335 336 337 335 333 335 339 339 340 343 343
268 276 283 289 296 302 305 308 311 309 312 317 320 323 324 327 328 328 328 329 331 334 335 335 334 333 333 331 331 330 331 332 332 334 334 334 332 333 337 337 340 341 342
272 283 291 298 302 306 306 307 310 311 316 319 321 325 326 328 326 324 327 331 332 332 332 333 332 331 330 329 329 329 329 330 329 330 330 331 330 333 335 336 339 340 340